"Period start","avg(HW err(1)/warn(2) (#))","avg(Visibility (m))","avg(Weather code (#))","avg(Precip intensity (mm/h))","min(HW err(1)/warn(2) (#))","max(HW err(1)/warn(2) (#))","std(HW err(1)/warn(2) (#))","med(HW err(1)/warn(2) (#))","min(Visibility (m))","max(Visibility (m))","std(Visibility (m))","med(Visibility (m))","min(Weather code (#))","max(Weather code (#))","std(Weather code (#))","med(Weather code (#))","min(Precip intensity (mm/h))","max(Precip intensity (mm/h))","std(Precip intensity (mm/h))","med(Precip intensity (mm/h))"
2014-05-21 00:00:00,2,44240,0,0.00,2,2,0,2,32708,50000,4923,44260,0,0,0,0,0.00,0.00,0.00,0.00
2014-05-21 00:10:00,2,43674,0,0.00,2,2,0,2,26864,50000,7883,47376,0,0,0,0,0.00,0.00,0.00,0.00
2014-05-21 00:20:00,2,42354,0,0.00,2,2,0,2,28701,50000,7451,44428,0,0,0,0,0.00,0.00,0.00,0.00
2014-05-21 00:30:00,2,34658,0,0.00,2,2,0,2,21093,48871,8180,34002,0,0,0,0,0.00,0.00,0.00,0.00
2014-05-21 00:40:00,2,40882,0,0.00,2,2,0,2,34164,50000,5898,38906,0,0,0,0,0.00,0.00,0.00,0.00
2014-05-21 00:50:00,2,41710,0,0.00,2,2,0,2,27193,50000,7247,44946,0,0,0,0,0.00,0.00,0.00,0.00
2014-05-21 01:00:00,2,42834,0,0.00,2,2,0,2,30584,50000,7377,46588,0,0,0,0,0.00,0.00,0.00,0.00
2014-05-21 01:10:00,2,37489,0,0.00,2,2,0,2,18470,50000,9239,37410,0,0,0,0,0.00,0.00,0.00,0.00
2014-05-21 01:20:00,2,41994,0,0.00,2,2,0,2,31861,50000,6077,41255,0,0,0,0,0.00,0.00,0.00,0.00
2014-05-21 01:30:00,2,37728,0,0.00,2,2,0,2,31126,44920,3995,37205,0,0,0,0,0.00,0.00,0.00,0.00
2014-05-21 01:40:00,2,39178,0,0.00,2,2,0,2,24545,50000,7662,40048,0,0,0,0,0.00,0.00,0.00,0.00
2014-05-21 01:50:00,2,43225,0,0.00,2,2,0,2,34699,50000,5832,42288,0,0,0,0,0.00,0.00,0.00,0.00
2014-05-21 02:00:00,2,44575,0,0.00,2,2,0,2,31741,50000,5514,46578,0,0,0,0,0.00,0.00,0.00,0.00
2014-05-21 02:10:00,2,37796,0,0.00,2,2,0,2,19193,50000,10518,40049,0,0,0,0,0.00,0.00,0.00,0.00
2014-05-21 02:20:00,2,47327,0,0.00,2,2,0,2,36691,50000,4210,49490,0,0,0,0,0.00,0.00,0.00,0.00
2014-05-21 02:30:00,1,42286,0,0.00,0,2,1,2,33278,50000,6537,42286,0,0,0,0,0.00,0.00,0.00,0.00
2014-05-21 02:40:00,2,39740,0,0.00,2,2,0,2,24593,50000,8734,42989,0,0,0,0,0.00,0.00,0.00,0.00
2014-05-21 02:50:00,2,44377,0,0.00,0,2,1,2,36315,50000,5183,45353,0,0,0,0,0.00,0.00,0.00,0.00
2014-05-21 03:00:00,0,47825,0,0.00,0,2,1,0,41059,50000,3217,49844,0,0,0,0,0.00,0.00,0.00,0.00
2014-05-21 03:10:00,2,47162,0,0.00,2,2,0,2,43248,50000,2593,47176,0,0,0,0,0.00,0.00,0.00,0.00
2014-05-21 03:20:00,2,45791,0,0.00,2,2,0,2,36136,50000,4755,48530,0,0,0,0,0.00,0.00,0.00,0.00
2014-05-21 03:30:00,2,44684,0,0.00,2,2,0,2,38070,50000,4337,45441,0,0,0,0,0.00,0.00,0.00,0.00
2014-05-21 03:40:00,2,47738,0,0.00,2,2,0,2,40925,50000,3313,49918,0,0,0,0,0.00,0.00,0.00,0.00
2014-05-21 03:50:00,2,35152,0,0.00,2,2,0,2,26966,44979,4757,34019,0,0,0,0,0.00,0.00,0.00,0.00
2014-05-21 04:00:00,2,44821,0,0.00,2,2,0,2,32156,50000,6166,47602,0,0,0,0,0.00,0.00,0.00,0.00
2014-05-21 04:10:00,2,47156,0,0.00,2,2,0,2,42561,50000,2901,48112,0,0,0,0,0.00,0.00,0.00,0.00
2014-05-21 04:20:00,2,48087,0,0.00,0,2,1,2,41518,50000,2616,49408,0,0,0,0,0.00,0.00,0.00,0.00
2014-05-21 04:30:00,2,43370,0,0.00,2,2,0,2,30318,50000,6444,44944,0,0,0,0,0.00,0.00,0.00,0.00
2014-05-21 04:40:00,2,46630,0,0.00,2,2,0,2,38688,50000,3745,47870,0,0,0,0,0.00,0.00,0.00,0.00
2014-05-21 04:50:00,2,47885,0,0.00,2,2,0,2,39625,50000,3463,50000,0,0,0,0,0.00,0.00,0.00,0.00
2014-05-21 05:00:00,2,47388,0,0.00,2,2,0,2,38933,50000,3464,49191,0,0,0,0,0.00,0.00,0.00,0.00
2014-05-21 05:10:00,2,43372,0,0.00,2,2,0,2,33762,50000,4606,43501,0,0,0,0,0.00,0.00,0.00,0.00
2014-05-21 05:20:00,2,47131,0,0.00,2,2,0,2,37577,50000,3949,49230,0,0,0,0,0.00,0.00,0.00,0.00
2014-05-21 05:30:00,2,48961,0,0.00,2,2,0,2,45783,50000,1239,49384,0,0,0,0,0.00,0.00,0.00,0.00
2014-05-21 05:40:00,2,46042,0,0.00,2,2,0,2,37854,50000,4570,48817,0,0,0,0,0.00,0.00,0.00,0.00
2014-05-21 05:50:00,2,48742,0,0.00,2,2,0,2,44593,50000,2066,50000,0,0,0,0,0.00,0.00,0.00,0.00
2014-05-21 06:00:00,2,49097,0,0.00,2,2,0,2,45898,50000,1504,50000,0,0,0,0,0.00,0.00,0.00,0.00
2014-05-21 06:10:00,2,48499,0,0.00,2,2,0,2,40586,50000,2859,50000,0,0,0,0,0.00,0.00,0.00,0.00
2014-05-21 06:20:00,2,45050,0,0.00,2,2,0,2,37898,50000,4535,44522,0,0,0,0,0.00,0.00,0.00,0.00
2014-05-21 06:30:00,2,44577,0,0.00,2,2,0,2,31327,50000,6255,47332,0,0,0,0,0.00,0.00,0.00,0.00
2014-05-21 06:40:00,2,48303,0,0.00,2,2,0,2,42131,50000,2835,50000,0,0,0,0,0.00,0.00,0.00,0.00
2014-05-21 06:50:00,2,46599,0,0.00,2,2,0,2,39715,50000,3598,48444,0,0,0,0,0.00,0.00,0.00,0.00
2014-05-21 07:00:00,2,44986,0,0.00,2,2,0,2,36848,50000,4742,45424,0,0,0,0,0.00,0.00,0.00,0.00
2014-05-21 07:10:00,2,49333,0,0.00,2,2,0,2,45896,50000,1223,50000,0,0,0,0,0.00,0.00,0.00,0.00
2014-05-21 07:20:00,2,49097,0,0.00,2,2,0,2,43848,50000,1842,50000,0,0,0,0,0.00,0.00,0.00,0.00
2014-05-21 07:30:00,2,46414,0,0.00,2,2,0,2,41942,50000,3184,46338,0,0,0,0,0.00,0.00,0.00,0.00
2014-05-21 07:40:00,2,47687,0,0.00,2,2,0,2,38348,50000,3597,50000,0,0,0,0,0.00,0.00,0.00,0.00
2014-05-21 07:50:00,2,46652,0,0.00,2,2,0,2,38015,50000,4032,48988,0,0,0,0,0.00,0.00,0.00,0.00
2014-05-21 08:00:00,2,47710,0,0.00,2,2,0,2,41193,50000,2626,48794,0,0,0,0,0.00,0.00,0.00,0.00
2014-05-21 08:10:00,2,48582,0,0.00,2,2,0,2,44634,50000,1946,50000,0,0,0,0,0.00,0.00,0.00,0.00
2014-05-21 08:20:00,2,47974,0,0.00,2,2,0,2,43106,50000,2489,48920,0,0,0,0,0.00,0.00,0.00,0.00
2014-05-21 08:30:00,2,49662,0,0.00,2,2,0,2,46618,50000,1015,50000,0,0,0,0,0.00,0.00,0.00,0.00
2014-05-21 08:40:00,2,49222,0,0.00,2,2,0,2,43023,50000,2075,50000,0,0,0,0,0.00,0.00,0.00,0.00
2014-05-21 08:50:00,2,46336,0,0.00,2,2,0,2,36453,50000,4587,48398,0,0,0,0,0.00,0.00,0.00,0.00
2014-05-21 09:00:00,2,48033,0,0.00,2,2,0,2,39458,50000,3504,50000,0,0,0,0,0.00,0.00,0.00,0.00
2014-05-21 09:10:00,2,46865,0,0.00,2,2,0,2,38654,50000,3385,47472,0,0,0,0,0.00,0.00,0.00,0.00
2014-05-21 09:20:00,2,47635,0,0.00,2,2,0,2,39433,50000,3394,49298,0,0,0,0,0.00,0.00,0.00,0.00
2014-05-21 09:30:00,2,47183,0,0.00,2,2,0,2,38324,50000,4543,50000,0,0,0,0,0.00,0.00,0.00,0.00
2014-05-21 09:40:00,2,46157,0,0.00,2,2,0,2,34792,50000,4767,48498,0,0,0,0,0.00,0.00,0.00,0.00
2014-05-21 09:50:00,2,49560,0,0.00,2,2,0,2,47740,50000,881,50000,0,0,0,0,0.00,0.00,0.00,0.00
2014-05-21 10:00:00,2,49516,0,0.00,2,2,0,2,47888,50000,768,50000,0,0,0,0,0.00,0.00,0.00,0.00
2014-05-21 10:10:00,2,49320,0,0.00,2,2,0,2,46290,50000,1177,49952,0,0,0,0,0.00,0.00,0.00,0.00
2014-05-21 10:20:00,2,48925,0,0.00,2,2,0,2,45476,50000,1683,50000,0,0,0,0,0.00,0.00,0.00,0.00
2014-05-21 10:30:00,2,48952,0,0.00,2,2,0,2,42903,50000,2254,50000,0,0,0,0,0.00,0.00,0.00,0.00
2014-05-21 10:40:00,2,49192,0,0.00,2,2,0,2,44180,50000,1802,50000,0,0,0,0,0.00,0.00,0.00,0.00
2014-05-21 10:50:00,2,47400,0,0.00,2,2,0,2,41062,50000,3121,48444,0,0,0,0,0.00,0.00,0.00,0.00
2014-05-21 11:00:00,2,45080,0,0.00,2,2,0,2,36138,50000,4198,45882,0,0,0,0,0.00,0.00,0.00,0.00
2014-05-21 11:10:00,2,43352,0,0.00,2,2,0,2,32354,50000,6844,45410,0,0,0,0,0.00,0.00,0.00,0.00
2014-05-21 11:20:00,2,41083,0,0.00,2,2,0,2,32240,50000,6447,41422,0,0,0,0,0.00,0.00,0.00,0.00
2014-05-21 11:30:00,2,45266,0,0.00,2,2,0,2,40075,50000,3128,44682,0,0,0,0,0.00,0.00,0.00,0.00
2014-05-21 11:40:00,2,35667,0,0.00,2,2,0,2,28302,43201,5764,34198,0,0,0,0,0.00,0.00,0.00,0.00
2014-05-21 11:50:00,2,39388,0,0.00,2,2,0,2,26069,48527,8721,42248,0,0,0,0,0.00,0.00,0.00,0.00
2014-05-21 12:00:00,2,42318,0,0.00,2,2,0,2,29748,50000,7149,44880,0,0,0,0,0.00,0.00,0.00,0.00
2014-05-21 12:10:00,2,45992,0,0.00,2,2,0,2,36874,50000,4335,47216,0,0,0,0,0.00,0.00,0.00,0.00
2014-05-21 12:20:00,2,48030,0,0.00,2,2,0,2,42645,50000,2232,48586,0,0,0,0,0.00,0.00,0.00,0.00
2014-05-21 12:30:00,2,49577,0,0.00,2,2,0,2,47452,50000,795,50000,0,0,0,0,0.00,0.00,0.00,0.00
2014-05-21 12:40:00,2,49384,0,0.00,2,2,0,2,47583,50000,867,49960,0,0,0,0,0.00,0.00,0.00,0.00
2014-05-21 12:50:00,2,49219,0,0.00,2,2,0,2,44793,50000,1566,50000,0,0,0,0,0.00,0.00,0.00,0.00
2014-05-21 13:00:00,2,50000,0,0.00,2,2,0,2,50000,50000,0,50000,0,0,0,0,0.00,0.00,0.00,0.00
2014-05-21 13:10:00,2,49763,0,0.00,2,2,0,2,48282,50000,530,50000,0,0,0,0,0.00,0.00,0.00,0.00
2014-05-21 13:20:00,2,49703,0,0.00,2,2,0,2,47102,50000,867,50000,0,0,0,0,0.00,0.00,0.00,0.00
2014-05-21 13:30:00,2,50000,0,0.00,2,2,0,2,50000,50000,0,50000,0,0,0,0,0.00,0.00,0.00,0.00
2014-05-21 13:40:00,1,49856,0,0.00,0,2,1,0,48557,50000,433,50000,0,0,0,0,0.00,0.00,0.00,0.00
2014-05-21 13:50:00,0,47224,0,0.00,0,0,0,0,41265,50000,3382,49141,0,0,0,0,0.00,0.00,0.00,0.00
2014-05-21 14:00:00,0,43064,0,0.00,0,0,0,0,33976,50000,6006,46224,0,0,0,0,0.00,0.00,0.00,0.00
2014-05-21 14:10:00,0,26958,0,0.00,0,0,0,0,12312,40716,10908,29796,0,0,0,0,0.00,0.00,0.00,0.00
2014-05-21 14:20:00,1,17898,0,0.00,0,2,1,1,11310,22368,3314,18246,0,0,0,0,0.00,0.00,0.00,0.00
2014-05-21 14:30:00,2,26423,0,0.00,0,2,1,2,21101,32823,3759,25120,0,0,0,0,0.00,0.00,0.00,0.00
2014-05-21 14:40:00,2,24835,0,0.00,0,2,1,2,19410,30480,3781,24652,0,0,0,0,0.00,0.00,0.00,0.00
2014-05-21 14:50:00,0,25379,0,0.00,0,0,0,0,20049,30028,2867,25194,0,0,0,0,0.00,0.00,0.00,0.00
2014-05-21 15:00:00,0,29749,0,0.00,0,0,0,0,24634,38174,3929,28456,0,0,0,0,0.00,0.00,0.00,0.00
2014-05-21 15:10:00,0,33520,0,0.00,0,0,0,0,27148,36524,2987,34426,0,0,0,0,0.00,0.00,0.00,0.00
2014-05-21 15:20:00,0,39113,0,0.00,0,0,0,0,32060,48990,6120,37772,0,0,0,0,0.00,0.00,0.00,0.00
2014-05-21 15:30:00,0,35771,0,0.00,0,0,0,0,25223,46825,6371,34936,0,0,0,0,0.00,0.00,0.00,0.00
2014-05-21 15:40:00,1,33833,0,0.00,0,2,1,0,21176,47280,9831,35486,0,0,0,0,0.00,0.00,0.00,0.00
2014-05-21 15:50:00,2,38068,0,0.00,0,2,1,2,30151,48758,5474,37002,0,0,0,0,0.00,0.00,0.00,0.00
2014-05-21 16:00:00,2,33594,0,0.00,2,2,0,2,26853,41787,5493,32210,0,0,0,0,0.00,0.00,0.00,0.00
2014-05-21 16:10:00,2,28411,0,0.00,2,2,0,2,21944,42860,6178,25115,0,0,0,0,0.00,0.00,0.00,0.00
2014-05-21 16:20:00,2,41492,0,0.00,2,2,0,2,34382,49509,4843,42354,0,0,0,0,0.00,0.00,0.00,0.00
2014-05-21 16:30:00,2,39303,0,0.00,2,2,0,2,32891,47540,5096,38546,0,0,0,0,0.00,0.00,0.00,0.00
2014-05-21 16:40:00,2,39382,0,0.00,2,2,0,2,31817,46720,4576,38121,0,0,0,0,0.00,0.00,0.00,0.00
2014-05-21 16:50:00,2,39276,0,0.00,2,2,0,2,32457,46416,4091,38642,0,0,0,0,0.00,0.00,0.00,0.00
2014-05-21 17:00:00,2,37148,0,0.00,2,2,0,2,29727,50000,5781,35954,0,0,0,0,0.00,0.00,0.00,0.00
2014-05-21 17:10:00,2,45276,0,0.00,2,2,0,2,41226,50000,3174,45220,0,0,0,0,0.00,0.00,0.00,0.00
2014-05-21 17:20:00,2,46156,0,0.00,2,2,0,2,41598,50000,2577,46644,0,0,0,0,0.00,0.00,0.00,0.00
2014-05-21 17:30:00,2,38376,0,0.00,2,2,0,2,29312,44302,3872,39678,0,0,0,0,0.00,0.00,0.00,0.00
2014-05-21 17:40:00,2,38483,0,0.00,2,2,0,2,23592,46985,6274,39884,0,0,0,0,0.00,0.00,0.00,0.00
2014-05-21 17:50:00,2,25303,0,0.00,0,2,1,2,23586,28498,1374,24988,0,0,0,0,0.00,0.00,0.00,0.00
2014-05-21 18:00:00,0,34140,0,0.00,0,0,0,0,27782,46896,5512,32640,0,0,0,0,0.00,0.00,0.00,0.00
2014-05-21 18:10:00,0,33646,0,0.00,0,0,0,0,29260,37751,2614,33226,0,0,0,0,0.00,0.00,0.00,0.00
2014-05-21 18:20:00,0,29961,0,0.00,0,0,0,0,21239,36190,5503,30989,0,0,0,0,0.00,0.00,0.00,0.00
2014-05-21 18:30:00,0,29278,0,0.00,0,0,0,0,23024,38742,4691,27331,0,0,0,0,0.00,0.00,0.00,0.00
2014-05-21 18:40:00,0,33942,0,0.00,0,0,0,0,25261,43339,4822,34178,0,0,0,0,0.00,0.00,0.00,0.00
2014-05-21 18:50:00,1,37731,0,0.00,0,2,1,0,30546,47009,5374,36894,0,0,0,0,0.00,0.00,0.00,0.00
2014-05-21 19:00:00,2,36527,0,0.00,2,2,0,2,32024,43229,3021,36644,0,0,0,0,0.00,0.00,0.00,0.00
2014-05-21 19:10:00,1,34501,0,0.00,0,2,1,2,28538,43165,4272,33894,0,0,0,0,0.00,0.00,0.00,0.00
2014-05-21 19:20:00,0,37932,0,0.00,0,0,0,0,31162,43512,3788,38260,0,0,0,0,0.00,0.00,0.00,0.00
2014-05-21 19:30:00,0,36265,0,0.00,0,0,0,0,29825,42122,3406,36342,0,0,0,0,0.00,0.00,0.00,0.00
2014-05-21 19:40:00,0,34870,0,0.00,0,0,0,0,28893,43785,4640,35634,0,0,0,0,0.00,0.00,0.00,0.00
2014-05-21 19:50:00,0,39953,0,0.00,0,0,0,0,34087,45930,3516,39086,0,0,0,0,0.00,0.00,0.00,0.00
2014-05-21 20:00:00,0,43649,0,0.00,0,0,0,0,37482,50000,3763,43557,0,0,0,0,0.00,0.00,0.00,0.00
2014-05-21 20:10:00,0,40028,0,0.00,0,0,0,0,29738,47452,5651,41361,0,0,0,0,0.00,0.00,0.00,0.00
2014-05-21 20:20:00,0,41688,0,0.00,0,0,0,0,39440,44842,1858,41484,0,0,0,0,0.00,0.00,0.00,0.00
2014-05-21 20:30:00,0,45126,0,0.00,0,0,0,0,35657,50000,4608,46008,0,0,0,0,0.00,0.00,0.00,0.00
2014-05-21 20:40:00,0,41895,0,0.00,0,0,0,0,34811,49002,4455,41344,0,0,0,0,0.00,0.00,0.00,0.00
2014-05-21 20:50:00,0,37215,0,0.00,0,0,0,0,29672,47871,5674,37095,0,0,0,0,0.00,0.00,0.00,0.00
2014-05-21 21:00:00,0,40027,0,0.00,0,0,0,0,31128,50000,5515,39278,0,0,0,0,0.00,0.00,0.00,0.00
2014-05-21 21:10:00,0,49153,0,0.00,0,0,0,0,47484,50000,1063,49719,0,0,0,0,0.00,0.00,0.00,0.00
2014-05-21 21:20:00,0,42567,0,0.00,0,0,0,0,30108,50000,6934,45291,0,0,0,0,0.00,0.00,0.00,0.00
2014-05-21 21:30:00,0,46010,0,0.00,0,0,0,0,39073,50000,4679,49066,0,0,0,0,0.00,0.00,0.00,0.00
2014-05-21 21:40:00,0,43387,0,0.00,0,0,0,0,33579,50000,6071,42390,0,0,0,0,0.00,0.00,0.00,0.00
2014-05-21 21:50:00,0,46086,0,0.00,0,0,0,0,37110,50000,4486,47978,0,0,0,0,0.00,0.00,0.00,0.00
2014-05-21 22:00:00,0,43103,0,0.00,0,0,0,0,30718,50000,6975,44044,0,0,0,0,0.00,0.00,0.00,0.00
2014-05-21 22:10:00,0,42559,0,0.00,0,0,0,0,25935,50000,8218,45064,0,0,0,0,0.00,0.00,0.00,0.00
2014-05-21 22:20:00,0,37945,0,0.00,0,0,0,0,5763,50000,12771,40823,0,0,0,0,0.00,0.00,0.00,0.00
2014-05-21 22:30:00,0,44485,0,0.00,0,0,0,0,34896,50000,5451,45841,0,0,0,0,0.00,0.00,0.00,0.00
2014-05-21 22:40:00,0,42762,0,0.00,0,0,0,0,34091,50000,5828,43319,0,0,0,0,0.00,0.00,0.00,0.00
2014-05-21 22:50:00,0,45574,0,0.00,0,0,0,0,36990,50000,4145,46681,0,0,0,0,0.00,0.00,0.00,0.00
2014-05-21 23:00:00,0,44905,0,0.00,0,0,0,0,37994,50000,4483,45128,0,0,0,0,0.00,0.00,0.00,0.00
2014-05-21 23:10:00,0,40679,0,0.00,0,0,0,0,28411,50000,7703,40996,0,0,0,0,0.00,0.00,0.00,0.00
2014-05-21 23:20:00,0,42173,0,0.00,0,0,0,0,30520,50000,6734,44371,0,0,0,0,0.00,0.00,0.00,0.00
2014-05-21 23:30:00,0,41824,0,0.00,0,0,0,0,34486,50000,4095,41950,0,0,0,0,0.00,0.00,0.00,0.00
2014-05-21 23:40:00,0,36273,0,0.00,0,0,0,0,26267,47791,6135,36810,0,0,0,0,0.00,0.00,0.00,0.00
2014-05-21 23:50:00,0,37705,0,0.00,0,0,0,0,22991,50000,8210,37044,0,0,0,0,0.00,0.00,0.00,0.00
